Location: Losili
(4.4086°N, 32.7049°E)
Time: 19:58:10
(UTC+00:00)

ISS - Pass Details

Date: 18 September 2019
Orbit: 411 x 421 km, 51.6° (Epoch: 13 October)

Event Time Altitude Azimuth Distance (km) Brightness Sun altitude
Rises 16:05:25 0° 242° (WSW) 2,337 1.2 -5.4°
Reaches altitude 10° 16:07:59 10° 262° (W) 1,472 0.7 -6.0°
Maximum altitude 16:10:17 18° 307° (NW) 1,097 -0.8 -6.6°
Drops below altitude 10° 16:12:35 10° 351° (N) 1,466 -0.8 -7.1°
Sets 16:15:08 0° 12° (NNE) 2,323 -0.1 -7.8°
